Change the Weather History Date:

Friday, June 21, 2013

  Actual Average Record
Temperature  
Mean Temperature 67 °F 68 °F  
Max Temperature 73 °F 80 °F 102 °F (1988)
Min Temperature 61 °F 56 °F 43 °F (1972)
Degree Days  
Heating Degree Days 0 2  
Month to date heating degree days 68 66  
Since 1 June heating degree days 68 66  
Since 1 July heating degree days 8248 7950  
Cooling Degree Days 2 4  
Month to date cooling degree days 49 51  
Year to date cooling degree days 64 67  
Since 1 June cooling degree days 49 51  
Growing Degree Days 18 (Base 50)    
Moisture  
Dew Point 62 °F    
Average Humidity 81    
Maximum Humidity 93    
Minimum Humidity 68    
Precipitation  
Precipitation 0.00 in 0.09 in 1.72 in (1957)
Month to date precipitation 1.12 2.45  
Year to date precipitation 8.80 8.47  
Sea Level Pressure  
Sea Level Pressure 29.84 in    
Wind  
Wind Speed 10 mph (ENE)    
Max Wind Speed 29 mph    
Max Gust Speed 37 mph    
Visibility 10 miles    
Events Thunderstorm    
T = Trace of Precipitation, MM = Missing Value Source: NWS Daily Summary

Daily Weather History Graph

Daily Weather History Graph

Search for Another Location

Airport or City:

Trip Planner

Search our weather history database for the weather conditions in past years. The results will help you decide how hot, cold, wet, or windy it might be!

Date:

Astronomy

Jun. 21, 2013 Rise Set
Actual Time 5:52 AM CDT 9:34 PM CDT
Civil Twilight 5:14 AM CDT 10:12 PM CDT
Nautical Twilight 4:23 AM CDT 11:03 PM CDT
Astronomical Twilight 3:14 AM CDT 12:12 AM CDT
Moon 7:43 PM CDT (6/21) 4:14 AM CDT (6/21)
Length of Visible Light 16h 57m
Length of Day
15h 41m
Waxing Gibbous, 95% of the Moon is Illuminated
Jun 21
Waxing Gibbous
Jun 23
Full
Jun 29
Last Quarter
Jul 8
New
Jul 15
First Quarter

Hourly Weather History & Observations

Time (CDT) Temp. Dew Point Humidity Pressure Visibility Wind Dir Wind Speed Gust Speed Precip Events Conditions
12:52 AM 66.9 °F 64.0 °F 90% 29.76 in 10.0 mi North 9.2 mph - N/A   Clear
1:52 AM 64.0 °F 62.1 °F 93% 29.78 in 10.0 mi North 8.1 mph - N/A   Clear
2:52 AM 62.1 °F 60.1 °F 93% 29.79 in 10.0 mi North 11.5 mph - N/A   Clear
3:52 AM 62.1 °F 59.0 °F 90% 29.81 in 10.0 mi NNE 11.5 mph - N/A   Clear
4:52 AM 62.1 °F 57.9 °F 86% 29.81 in 10.0 mi NE 8.1 mph - N/A   Clear
5:52 AM 62.1 °F 61.0 °F 96% 29.82 in 10.0 mi East 8.1 mph - N/A   Clear
6:52 AM 63.0 °F 61.0 °F 93% 29.81 in 10.0 mi East 3.5 mph - N/A   Clear
7:52 AM 66.0 °F 62.1 °F 87% 29.81 in 10.0 mi NNE 5.8 mph - N/A   Clear
8:52 AM 69.1 °F 62.1 °F 78% 29.80 in 10.0 mi NE 6.9 mph - N/A   Clear
9:52 AM 72.0 °F 62.1 °F 71% 29.82 in 10.0 mi NE 4.6 mph - N/A   Clear
10:52 AM 73.0 °F 62.1 °F 68% 29.85 in 10.0 mi SSW 3.5 mph - N/A   Clear
11:52 AM 72.0 °F 63.0 °F 73% 29.86 in 10.0 mi Calm Calm - N/A   Clear
12:52 PM 71.1 °F 64.0 °F 78% 29.87 in 10.0 mi NE 3.5 mph - N/A   Clear
1:52 PM 70.0 °F 64.0 °F 81% 29.74 in 10.0 mi East 18.4 mph 27.6 mph N/A   Clear
2:52 PM 70.0 °F 62.1 °F 76% 29.78 in 10.0 mi NNE 24.2 mph 32.2 mph N/A   Clear
3:52 PM 70.0 °F 63.0 °F 78% 29.82 in 10.0 mi NNE 17.3 mph 26.5 mph N/A   Clear
4:52 PM 71.1 °F 63.0 °F 75% 29.83 in 10.0 mi NNE 18.4 mph 29.9 mph N/A   Clear
5:52 PM 73.0 °F 63.0 °F 71% 29.84 in 10.0 mi NNE 17.3 mph 25.3 mph N/A   Clear
6:52 PM 73.0 °F 62.1 °F 68% 29.83 in 10.0 mi NE 15.0 mph - N/A   Clear
7:52 PM 71.1 °F 61.0 °F 70% 29.80 in 10.0 mi East 16.1 mph 24.2 mph N/A   Clear
8:52 PM 69.1 °F 62.1 °F 78% 29.87 in 10.0 mi ENE 6.9 mph - N/A   Mostly Cloudy
9:01 PM 68.0 °F 62.6 °F 83% 29.90 in 10.0 mi ENE 6.9 mph - N/A Thunderstorm Mostly Cloudy
9:52 PM 66.9 °F 61.0 °F 81% 29.90 in 10.0 mi East 5.8 mph - N/A Thunderstorm Scattered Clouds
10:04 PM 66.2 °F 60.8 °F 83% 29.92 in 10.0 mi ESE 6.9 mph - N/A   Clear
10:12 PM 66.2 °F 60.8 °F 83% 29.93 in 10.0 mi East 6.9 mph - N/A Thunderstorm Partly Cloudy
10:27 PM 66.2 °F 62.6 °F 88% 29.94 in 10.0 mi SSE 4.6 mph - N/A   Mostly Cloudy
10:52 PM 66.0 °F 62.1 °F 87% 29.91 in 10.0 mi Calm Calm - N/A   Scattered Clouds
11:52 PM 64.0 °F 61.0 °F 90% 29.83 in 10.0 mi East 6.9 mph - N/A   Clear